Tracking 30995 objects as of 5-Jul-2025
HD Live streaming from Space Station
objects crossing your sky now

DMSP 5D-2 F13 DEB

Track DMSP 5D-2 F13 DEB now!
10-day predictions


NORAD ID: 42270
Int'l Code: 1995-015GL
Perigee: 488.8 km
Apogee: 496.2 km
Inclination: 98.8 °
Period: 94.3 minutes
Semi major axis: 6863 km
RCS: Unknown
Launch date: March 24, 1995
Source: United States (US)
Launch site: AIR FORCE WESTERN TEST RANGE (AFWTR)

Note: This is SATELLITE DEBRIS
Your satellite tracking list
Your tracking list is empty




NASA's NSSDC Master Catalog

Two Line Element Set (TLE):
1 42270U 95015GL  25185.38630446  .00399780  00000-0  14390-1 0  9994
2 42270  98.7869 241.3489 0005360 233.0157 127.0587 15.26801358523043
Source of the keplerian elements: AFSPC